カタログに戻る

OSCAR 23

運用中アマチュア無線PO
NORAD 19070·PAYLOAD·🇺🇸 United States

打ち上げ Apr 26, 1988 から Vandenberg Space Force Base

Loading…

次のパス (今後24時間)

TLE

最新Source: Space-Track

元期: Sep 14, 2026, 15:11 UTC

1 19070U 88033A   26257.63276385  .00000041  00000-0  62573-4 0  9993
2 19070  90.3357  25.1331 0190878 132.7758 308.8385 13.27827985859141

AllMySatでOSCAR 23をリアルタイム追跡

Download on the App Store